﻿_id,datum,zaehlstelle,uhrzeit_start,uhrzeit_ende,richtung_1,richtung_2,gesamt,min.temp,max.temp,niederschlag,bewoelkung,sonnenstunden,kommentar
1,2016-01-01,Arnulf,00:00,23:59,118,9,127,1.1,5.2,0,93,0,NA
2,2016-01-02,Arnulf,00:00,23:59,244,16,260,0.3,1.3,8,99,0,NA
3,2016-01-03,Arnulf,00:00,23:59,130,17,147,-2,1.5,2.8,98,0,NA
4,2016-01-04,Arnulf,00:00,23:59,427,34,461,-3.2,6.4,1.3,89,1.9,NA
5,2016-01-05,Arnulf,00:00,23:59,521,39,560,1.5,6.5,0.5,83,1.4,NA
6,2016-01-06,Arnulf,00:00,23:59,251,17,268,1.8,6.6,2.6,95,0.6,NA
7,2016-01-07,Arnulf,00:00,23:59,686,49,735,2,6.6,2.7,79,3.1,NA
8,2016-01-08,Arnulf,00:00,23:59,730,52,782,3.6,7.4,8.8,63,3.5,NA
9,2016-01-09,Arnulf,00:00,23:59,253,10,263,4.5,7.7,2.3,99,0,NA
10,2016-01-10,Arnulf,00:00,23:59,235,19,254,3.3,7.3,8.4,90,0.3,NA
11,2016-01-11,Arnulf,00:00,23:59,627,38,665,4.5,7.4,0.9,91,0,NA
12,2016-01-12,Arnulf,00:00,23:59,629,49,678,1.7,6.1,3.7,75,0.8,NA
13,2016-01-13,Arnulf,00:00,23:59,588,40,628,1.4,3.9,0.2,90,0,NA
14,2016-01-14,Arnulf,00:00,23:59,819,55,874,-0.5,4.4,0.3,56,6.2,NA
15,2016-01-15,Arnulf,00:00,23:59,466,35,501,-1.2,2.2,4.3,91,0.4,NA
16,2016-01-16,Arnulf,00:00,23:59,163,11,174,-1.8,0.2,2,98,0.2,NA
17,2016-01-17,Arnulf,00:00,23:59,56,13,69,-4.3,-0.8,2.4,96,1.5,NA
18,2016-01-18,Arnulf,00:00,23:59,269,30,299,-7,-2.7,0,69,7,NA
19,2016-01-19,Arnulf,00:00,23:59,305,34,339,-7.8,-1.5,0,98,0,NA
20,2016-01-20,Arnulf,00:00,23:59,318,49,367,-4.5,1.1,0.1,75,8.5,NA
21,2016-01-21,Arnulf,00:00,23:59,397,39,436,-6.3,0.7,0,68,0.7,NA
22,2016-01-22,Arnulf,00:00,23:59,378,40,418,-8.1,-4,1.5,48,5.2,NA
23,2016-01-23,Arnulf,00:00,23:59,154,10,164,-7.9,4.6,1.3,85,0,NA
24,2016-01-24,Arnulf,00:00,23:59,166,9,175,-1.9,6.3,0.5,74,0.3,NA
25,2016-01-25,Arnulf,00:00,23:59,711,44,755,2.9,12.7,0,54,4.6,NA
26,2016-01-26,Arnulf,00:00,23:59,874,55,929,1.3,15.4,0,25,5.9,NA
27,2016-01-27,Arnulf,00:00,23:59,941,65,1006,3.4,14.9,0,75,2.6,NA
28,2016-01-28,Arnulf,00:00,23:59,821,51,872,6.4,13,4.1,95,0,NA
29,2016-01-29,Arnulf,00:00,23:59,761,56,817,5.2,11.1,0,59,3.6,NA
30,2016-01-30,Arnulf,00:00,23:59,499,21,520,1.4,12.4,13.1,40,6.7,NA
31,2016-01-31,Arnulf,00:00,23:59,132,8,140,0.6,9.9,20.7,98,0,NA
32,2016-02-01,Arnulf,00:00,23:59,743,55,798,8,14.2,0,91,0.9,NA
33,2016-02-02,Arnulf,00:00,23:59,979,61,1040,7.7,12.5,0.3,74,5,NA
34,2016-02-03,Arnulf,00:00,23:59,455,42,497,0.7,9.9,9.3,93,0,NA
35,2016-02-04,Arnulf,00:00,23:59,565,51,616,0.9,3.8,6.9,96,0.3,NA
36,2016-02-05,Arnulf,00:00,23:59,570,46,616,2.1,7.6,0.3,81,0.8,NA
37,2016-02-06,Arnulf,00:00,23:59,490,21,511,0.1,15.4,0,18,8.5,NA
38,2016-02-07,Arnulf,00:00,23:59,307,22,329,3.3,14.9,0.2,66,1,NA
39,2016-02-08,Arnulf,00:00,23:59,770,54,824,3.3,13.7,2.5,74,3.3,NA
40,2016-02-09,Arnulf,00:00,23:59,662,53,715,5.5,11.9,0.3,91,0.6,NA
41,2016-02-10,Arnulf,00:00,23:59,587,50,637,1.2,5.5,0.6,96,0.4,NA
42,2016-02-11,Arnulf,00:00,23:59,662,59,721,-0.8,6.9,0,70,2.9,NA
43,2016-02-12,Arnulf,00:00,23:59,673,48,721,-1.4,7.1,0.9,80,6.2,NA
44,2016-02-13,Arnulf,00:00,23:59,349,19,368,2.2,8,1.9,94,0.4,NA
45,2016-02-14,Arnulf,00:00,23:59,291,15,306,2.1,10,3.3,79,1,NA
46,2016-02-15,Arnulf,00:00,23:59,851,62,913,2.1,7,0,93,1.7,NA
47,2016-02-16,Arnulf,00:00,23:59,769,64,833,1.2,3.2,0,100,0.1,NA
48,2016-02-17,Arnulf,00:00,23:59,679,55,734,0.6,3,0.4,99,0,NA
49,2016-02-18,Arnulf,00:00,23:59,786,66,852,-0.4,5,0,89,0,NA
50,2016-02-19,Arnulf,00:00,23:59,702,43,745,1,4.4,0,100,0,NA
51,2016-02-20,Arnulf,00:00,23:59,216,16,232,0.4,8.9,9.6,80,0.8,NA
52,2016-02-21,Arnulf,00:00,23:59,267,24,291,6.4,14.6,0,75,0.9,NA
53,2016-02-22,Arnulf,00:00,23:59,1099,83,1182,9,18.1,0,40,7,NA
54,2016-02-23,Arnulf,00:00,23:59,675,47,722,0.7,11.3,4.3,94,0.1,NA
55,2016-02-24,Arnulf,00:00,23:59,762,65,827,0.8,5.7,5.9,81,2.6,NA
56,2016-02-25,Arnulf,00:00,23:59,428,33,461,-0.3,1.7,4.4,96,0,NA
57,2016-02-26,Arnulf,00:00,23:59,743,48,791,-1.7,4.4,0,41,9.5,NA
58,2016-02-27,Arnulf,00:00,23:59,374,21,395,-2.6,7.3,0,48,6.4,NA
59,2016-02-28,Arnulf,00:00,23:59,280,16,296,-0.1,6.6,0,81,0,NA
60,2016-02-29,Arnulf,00:00,23:59,522,51,573,-1.2,4.6,24.2,100,0,NA
61,2016-03-01,Arnulf,00:00,23:59,269,32,301,-1.5,1.9,3.3,90,0,NA
62,2016-03-02,Arnulf,00:00,23:59,544,45,589,1.2,8.8,6.8,90,0.9,NA
63,2016-03-03,Arnulf,00:00,23:59,650,57,707,1,5.1,0,88,0.1,NA
64,2016-03-04,Arnulf,00:00,23:59,796,56,852,0.4,7.9,0,69,6.9,NA
65,2016-03-05,Arnulf,00:00,23:59,344,17,361,0.5,8.2,6.7,94,0.5,NA
66,2016-03-06,Arnulf,00:00,23:59,294,24,318,0.2,5.5,0,65,3.7,NA
67,2016-03-07,Arnulf,00:00,23:59,845,58,903,-0.3,4.8,0,91,3,NA
68,2016-03-08,Arnulf,00:00,23:59,719,54,773,-1.2,5.6,0.4,84,2.8,NA
69,2016-03-09,Arnulf,00:00,23:59,839,65,904,-2.7,5.8,0,29,4.5,NA
70,2016-03-10,Arnulf,00:00,23:59,856,51,907,-1.7,8.6,0,58,4.9,NA
71,2016-03-11,Arnulf,00:00,23:59,820,68,888,-1.4,8.6,0,63,3.7,NA
72,2016-03-12,Arnulf,00:00,23:59,367,15,382,3.1,6.2,0,99,0,NA
73,2016-03-13,Arnulf,00:00,23:59,305,24,329,2,6.1,0,98,0,NA
74,2016-03-14,Arnulf,00:00,23:59,878,62,940,-0.3,7.8,0,58,5.1,NA
75,2016-03-15,Arnulf,00:00,23:59,635,55,690,-1.3,1.1,5.2,85,0,NA
76,2016-03-16,Arnulf,00:00,23:59,739,44,783,-0.9,6.7,0,53,7.1,NA
77,2016-03-17,Arnulf,00:00,23:59,986,65,1051,-1.8,12.2,0,0,11.2,NA
78,2016-03-18,Arnulf,00:00,23:59,966,68,1034,-0.3,13.5,0,0,11.4,NA
79,2016-03-19,Arnulf,00:00,23:59,634,31,665,1,12.4,0,13,11,NA
80,2016-03-20,Arnulf,00:00,23:59,418,44,462,1.9,10.2,0,63,5.1,NA
81,2016-03-21,Arnulf,00:00,23:59,909,66,975,2.3,9.5,0,94,1.9,NA
82,2016-03-22,Arnulf,00:00,23:59,968,55,1023,4,9.2,0,96,2.1,NA
83,2016-03-23,Arnulf,00:00,23:59,795,56,851,3.6,7.7,0.1,96,0,NA
84,2016-03-24,Arnulf,00:00,23:59,810,52,862,3.2,7.8,0,94,0.4,NA
85,2016-03-25,Arnulf,00:00,23:59,149,20,169,4.2,7.7,14.5,98,0,NA
86,2016-03-26,Arnulf,00:00,23:59,491,16,507,3.8,12.6,0,60,5.6,NA
87,2016-03-27,Arnulf,00:00,23:59,287,23,310,1.2,14.8,3.3,56,6.4,NA
88,2016-03-28,Arnulf,00:00,23:59,426,15,441,5,15.1,0.1,55,7.5,NA
89,2016-03-29,Arnulf,00:00,23:59,819,54,873,6.8,14.8,0.9,70,6.2,NA
90,2016-03-30,Arnulf,00:00,23:59,867,57,924,8.3,16.4,1.9,91,1.6,NA
91,2016-03-31,Arnulf,00:00,23:59,1306,75,1381,7.6,23.7,0,54,7.3,NA
92,2016-04-01,Arnulf,00:00,23:59,952,69,1021,7.1,13.4,0,95,0.2,NA
93,2016-04-02,Arnulf,00:00,23:59,729,41,770,6.5,16.8,0,50,5.5,NA
94,2016-04-03,Arnulf,00:00,23:59,911,43,954,6.1,23.7,0,40,9.6,NA
95,2016-04-04,Arnulf,00:00,23:59,1606,79,1685,11.8,21.7,0,49,9.1,NA
96,2016-04-05,Arnulf,00:00,23:59,1708,86,1794,8.5,20.7,0.1,55,6.4,NA
97,2016-04-06,Arnulf,00:00,23:59,1006,68,1074,8.9,14.4,1.1,68,3.4,NA
98,2016-04-07,Arnulf,00:00,23:59,1089,86,1175,6.3,12.3,2.1,80,0,NA
99,2016-04-08,Arnulf,00:00,23:59,804,51,855,4.4,8,0.7,94,0,NA
100,2016-04-09,Arnulf,00:00,23:59,437,31,468,5,10.4,1.8,98,0,NA
101,2016-04-10,Arnulf,00:00,23:59,620,36,656,5.4,13.8,0,69,2.5,NA
102,2016-04-11,Arnulf,00:00,23:59,1533,79,1612,3.6,17.3,0.7,16,10.6,NA
103,2016-04-12,Arnulf,00:00,23:59,1096,58,1154,6.1,17.7,5.8,53,7.3,NA
104,2016-04-13,Arnulf,00:00,23:59,1239,75,1314,8.1,18.5,4.6,68,6.9,NA
105,2016-04-14,Arnulf,00:00,23:59,1096,62,1158,7.4,13.7,1.1,76,3.4,NA
106,2016-04-15,Arnulf,00:00,23:59,951,59,1010,6.8,13.2,1.2,90,0,NA
107,2016-04-16,Arnulf,00:00,23:59,617,33,650,8,17.7,0,79,5.5,NA
108,2016-04-17,Arnulf,00:00,23:59,196,11,207,6.5,11.7,20.3,81,0,NA
109,2016-04-18,Arnulf,00:00,23:59,796,59,855,5.9,11.1,0.2,100,0.4,NA
110,2016-04-19,Arnulf,00:00,23:59,1447,80,1527,6,13.4,0,84,4.4,NA
111,2016-04-20,Arnulf,00:00,23:59,1593,68,1661,6.5,15.5,0,25,12.1,NA
112,2016-04-21,Arnulf,00:00,23:59,1761,94,1855,3.2,19.5,0,4,13.1,NA
113,2016-04-22,Arnulf,00:00,23:59,1504,83,1587,5,19.9,0,45,10.6,NA
114,2016-04-23,Arnulf,00:00,23:59,477,24,501,2.5,14.9,11.2,93,0.2,NA
115,2016-04-24,Arnulf,00:00,23:59,292,14,306,1.1,7.2,0.6,85,1.7,NA
116,2016-04-25,Arnulf,00:00,23:59,737,52,789,0,7.3,1.2,88,4.7,NA
117,2016-04-26,Arnulf,00:00,23:59,735,48,783,0.4,8.7,9,94,0,NA
118,2016-04-27,Arnulf,00:00,23:59,743,35,778,0.6,7.7,0.5,69,6,NA
119,2016-04-28,Arnulf,00:00,23:59,1117,69,1186,0.7,11.2,0,63,8.1,NA
120,2016-04-29,Arnulf,00:00,23:59,1275,84,1359,0.3,16.4,0,6,12.7,NA
121,2016-04-30,Arnulf,00:00,23:59,993,41,1034,2.9,19.8,0,28,12.5,NA
122,2016-05-01,Arnulf,00:00,23:59,329,31,360,8.1,12.7,4.5,96,0,NA
123,2016-05-02,Arnulf,00:00,23:59,1331,74,1405,5.2,16.8,0,38,7.7,NA
124,2016-05-03,Arnulf,00:00,23:59,1146,75,1221,7.1,17.5,4.9,71,4.8,NA
125,2016-05-04,Arnulf,00:00,23:59,1424,82,1506,5.6,14,0,60,7.5,NA
126,2016-05-05,Arnulf,00:00,23:59,1041,43,1084,3,16.5,0,20,12.5,NA
127,2016-05-06,Arnulf,00:00,23:59,1640,64,1704,5.4,22.6,0,0,14,NA
128,2016-05-07,Arnulf,00:00,23:59,1198,43,1241,7.5,23.7,0,0,14.2,NA
129,2016-05-08,Arnulf,00:00,23:59,1036,37,1073,8.4,23.2,0,0,14.1,NA
130,2016-05-09,Arnulf,00:00,23:59,1887,83,1970,8.5,24.3,0,25,13,NA
131,2016-05-10,Arnulf,00:00,23:59,1649,74,1723,10.9,19.7,0.3,66,1.5,NA
132,2016-05-11,Arnulf,00:00,23:59,1631,64,1695,10.5,22.1,0,60,5,NA
133,2016-05-12,Arnulf,00:00,23:59,1026,72,1098,10.1,15.2,4.4,84,0.7,NA
134,2016-05-13,Arnulf,00:00,23:59,644,53,697,9.3,15.2,20.2,96,0.2,NA
135,2016-05-14,Arnulf,00:00,23:59,386,12,398,6.5,16.6,6.7,89,2.7,NA
136,2016-05-15,Arnulf,00:00,23:59,353,20,373,5.8,10.9,0,91,2.7,NA
137,2016-05-16,Arnulf,00:00,23:59,229,31,260,5.6,10.3,6.1,94,0.4,NA
138,2016-05-17,Arnulf,00:00,23:59,999,70,1069,5.4,13.7,0.5,73,4,NA
139,2016-05-18,Arnulf,00:00,23:59,1544,64,1608,6.6,19.9,1.7,43,12.1,NA
140,2016-05-19,Arnulf,00:00,23:59,607,47,654,9.1,12.6,6.1,98,0,NA
141,2016-05-20,Arnulf,00:00,23:59,1246,71,1317,9.1,18.6,0,66,4.6,NA
142,2016-05-21,Arnulf,00:00,23:59,1202,43,1245,8.4,23.8,0,24,12.9,NA
143,2016-05-22,Arnulf,00:00,23:59,1274,51,1325,9.7,28.7,0,20,12.7,NA
144,2016-05-23,Arnulf,00:00,23:59,835,69,904,7,15.6,30.4,98,0.4,NA
145,2016-05-24,Arnulf,00:00,23:59,449,30,479,7,10.9,6.9,99,0,NA
146,2016-05-25,Arnulf,00:00,23:59,1312,72,1384,8.8,18.6,0,83,4.3,NA
147,2016-05-26,Arnulf,00:00,23:59,1169,36,1205,11.6,24.2,0,51,8.9,NA
148,2016-05-27,Arnulf,00:00,23:59,1512,52,1564,13.7,25.9,2,54,9.2,NA
149,2016-05-28,Arnulf,00:00,23:59,994,40,1034,13.8,24.9,0,60,7.3,NA
150,2016-05-29,Arnulf,00:00,23:59,802,30,832,13.5,25.4,14.1,79,5.8,NA
151,2016-05-30,Arnulf,00:00,23:59,984,60,1044,13,21,3.6,94,3.8,NA
152,2016-05-31,Arnulf,00:00,23:59,1187,70,1257,11.8,17.6,7,90,0.8,NA
153,2016-06-01,Arnulf,00:00,23:59,1055,61,1116,12.5,19.6,0.2,98,1.3,NA
154,2016-06-02,Arnulf,00:00,23:59,966,77,1043,13.2,17,2.9,96,0,NA
155,2016-06-03,Arnulf,00:00,23:59,1152,81,1233,12.6,20.5,11.2,88,5.3,NA
156,2016-06-04,Arnulf,00:00,23:59,689,49,738,12.8,21,6.5,98,2.3,NA
157,2016-06-05,Arnulf,00:00,23:59,457,24,481,12.8,21.2,5.2,84,1.8,NA
158,2016-06-06,Arnulf,00:00,23:59,1910,98,2008,11.7,25.7,0,14,13.9,NA
159,2016-06-07,Arnulf,00:00,23:59,2285,112,2397,12.6,26.2,0,1,14.2,NA
160,2016-06-08,Arnulf,00:00,23:59,1205,81,1286,13.5,20,6.3,88,0.2,NA
161,2016-06-09,Arnulf,00:00,23:59,1047,61,1108,11.8,17.6,10.7,75,2.6,NA
162,2016-06-10,Arnulf,00:00,23:59,1906,81,1987,10.6,22.4,0,20,12.5,NA
163,2016-06-11,Arnulf,00:00,23:59,449,26,475,13.2,18,8.1,96,0.5,NA
164,2016-06-12,Arnulf,00:00,23:59,542,30,572,12.7,21.1,0.2,90,3.2,NA
165,2016-06-13,Arnulf,00:00,23:59,1292,68,1360,12.7,20.8,2.2,91,2.6,NA
166,2016-06-14,Arnulf,00:00,23:59,1330,82,1412,11.7,20.3,7.4,89,2.9,NA
167,2016-06-15,Arnulf,00:00,23:59,1510,82,1592,12,21.1,1.3,79,5.3,NA
168,2016-06-16,Arnulf,00:00,23:59,1394,68,1462,12.2,24,9.4,86,5.1,NA
169,2016-06-17,Arnulf,00:00,23:59,1147,54,1201,9.8,20.9,0.1,50,7.3,NA
170,2016-06-18,Arnulf,00:00,23:59,912,44,956,12.1,21.3,3.4,75,6.1,NA
171,2016-06-19,Arnulf,00:00,23:59,283,26,309,12.2,16.3,4.8,96,0.2,NA
172,2016-06-20,Arnulf,00:00,23:59,1716,72,1788,11.7,22.3,0,65,8.3,NA
173,2016-06-21,Arnulf,00:00,23:59,1776,78,1854,15,22.6,0,91,1.7,NA
174,2016-06-22,Arnulf,00:00,23:59,2195,107,2302,16.6,27.8,0,41,11.6,NA
175,2016-06-23,Arnulf,00:00,23:59,2371,94,2465,16,31.1,0,0,15.4,NA
176,2016-06-24,Arnulf,00:00,23:59,2023,88,2111,15.5,31.9,0,6,15.2,NA
177,2016-06-25,Arnulf,00:00,23:59,1011,30,1041,16.9,29.1,5.9,59,10,NA
178,2016-06-26,Arnulf,00:00,23:59,551,29,580,13.3,17.5,5.4,98,0,NA
179,2016-06-27,Arnulf,00:00,23:59,1766,83,1849,13.1,22.2,0,71,7.6,NA
180,2016-06-28,Arnulf,00:00,23:59,2139,91,2230,15.7,25.5,0,68,9.6,NA
181,2016-06-29,Arnulf,00:00,23:59,2022,87,2109,17.9,25.5,4.8,59,4.4,NA
182,2016-06-30,Arnulf,00:00,23:59,1331,71,1402,16.5,24.1,8,78,1.9,NA
183,2016-07-01,Arnulf,00:00,23:59,1937,96,2033,15.3,27.9,0,39,11.1,NA
184,2016-07-02,Arnulf,00:00,23:59,796,27,823,13.4,24.1,3.2,90,2.1,NA
185,2016-07-03,Arnulf,00:00,23:59,831,60,891,12.2,21.2,0,79,7.1,NA
186,2016-07-04,Arnulf,00:00,23:59,1971,93,2064,15,23.8,0,61,6.8,NA
187,2016-07-05,Arnulf,00:00,23:59,2138,97,2235,13.4,26.9,0,36,10.7,NA
188,2016-07-06,Arnulf,00:00,23:59,2025,101,2126,16,22.2,0,80,6.9,NA
189,2016-07-07,Arnulf,00:00,23:59,2521,96,2617,12.9,25.3,0,19,14.3,NA
190,2016-07-08,Arnulf,00:00,23:59,1970,103,2073,12.4,29.4,0,35,12.4,NA
191,2016-07-09,Arnulf,00:00,23:59,1455,52,1507,17.3,28,0,64,8.7,NA
192,2016-07-10,Arnulf,00:00,23:59,1146,62,1208,15.1,33.2,0,13,14.3,NA
193,2016-07-11,Arnulf,00:00,23:59,1756,80,1836,21.5,33.2,16.9,45,11,NA
194,2016-07-12,Arnulf,00:00,23:59,874,60,934,15.9,21.9,27.4,96,0.1,NA
195,2016-07-13,Arnulf,00:00,23:59,843,59,902,10.7,18.7,23.9,96,0.5,NA
196,2016-07-14,Arnulf,00:00,23:59,940,60,1000,10.6,17.1,4.9,90,2.3,NA
197,2016-07-15,Arnulf,00:00,23:59,1440,88,1528,9.6,18.9,0,75,3.4,NA
198,2016-07-16,Arnulf,00:00,23:59,1135,44,1179,11.2,21.3,0,76,5.6,NA
199,2016-07-17,Arnulf,00:00,23:59,855,48,903,13.9,24.8,1.8,80,3.5,NA
200,2016-07-18,Arnulf,00:00,23:59,2037,97,2134,17,27.9,0,40,12,NA
201,2016-07-19,Arnulf,00:00,23:59,2293,112,2405,15.7,29.3,0,10,14.5,NA
202,2016-07-20,Arnulf,00:00,23:59,2317,90,2407,15.6,31,0,0,14.6,NA
203,2016-07-21,Arnulf,00:00,23:59,1440,80,1520,15.8,28,13.5,43,5.9,NA
204,2016-07-22,Arnulf,00:00,23:59,1686,98,1784,16.6,27.2,0.5,59,7.2,NA
205,2016-07-23,Arnulf,00:00,23:59,843,32,875,16.9,26.4,7.7,86,3,NA
206,2016-07-24,Arnulf,00:00,23:59,1066,53,1119,17.2,28,0,51,10.9,NA
207,2016-07-25,Arnulf,00:00,23:59,1533,93,1626,18.5,26.7,10.4,81,3.3,NA
208,2016-07-26,Arnulf,00:00,23:59,1537,81,1618,16.1,25.9,1.3,65,5.8,NA
209,2016-07-27,Arnulf,00:00,23:59,1626,77,1703,15.7,26.2,2,66,4.3,NA
210,2016-07-28,Arnulf,00:00,23:59,2024,90,2114,15.9,25.3,0,74,4.8,NA
211,2016-07-29,Arnulf,00:00,23:59,1974,106,2080,17.2,26.7,0,60,5.9,NA
212,2016-07-30,Arnulf,00:00,23:59,1318,59,1377,16.7,30.6,0.1,29,12.1,NA
213,2016-07-31,Arnulf,00:00,23:59,511,39,550,17,22.1,2.8,81,0.6,NA
214,2016-08-01,Arnulf,00:00,23:59,1940,117,2057,14.2,23.5,0,48,9.2,NA
215,2016-08-02,Arnulf,00:00,23:59,1731,105,1836,14.8,23.7,0.5,83,1.1,NA
216,2016-08-03,Arnulf,00:00,23:59,2112,94,2206,15.7,28.7,0,58,10.7,NA
217,2016-08-04,Arnulf,00:00,23:59,2272,110,2382,15.5,31.1,19.7,28,10.9,NA
218,2016-08-05,Arnulf,00:00,23:59,446,35,481,12.5,15.6,20.4,98,0,NA
219,2016-08-06,Arnulf,00:00,23:59,1039,26,1065,12.5,21.8,0.6,81,5.7,NA
220,2016-08-07,Arnulf,00:00,23:59,796,35,831,12,24.9,0,13,11.3,NA
221,2016-08-08,Arnulf,00:00,23:59,2073,96,2169,13.2,28.3,6.7,13,13.2,NA
222,2016-08-09,Arnulf,00:00,23:59,753,55,808,12.9,18.9,5,98,0,NA
223,2016-08-10,Arnulf,00:00,23:59,986,60,1046,10.8,15.7,7.1,96,0.5,NA
224,2016-08-11,Arnulf,00:00,23:59,1536,84,1620,10,18.7,2.5,75,7,NA
225,2016-08-12,Arnulf,00:00,23:59,708,71,779,11.5,16.7,2.6,99,0,NA
226,2016-08-13,Arnulf,00:00,23:59,1299,69,1368,12.5,26.7,0,6,13.7,NA
227,2016-08-14,Arnulf,00:00,23:59,1001,63,1064,15.1,28.1,0,11,11.2,NA
228,2016-08-15,Arnulf,00:00,23:59,999,50,1049,15.6,26.7,0,36,9.4,NA
229,2016-08-16,Arnulf,00:00,23:59,1842,102,1944,14.1,27.7,0,21,11.6,NA
230,2016-08-17,Arnulf,00:00,23:59,1827,92,1919,14.7,24.7,0.1,63,8.1,NA
231,2016-08-18,Arnulf,00:00,23:59,1348,85,1433,15.7,23.8,8.4,81,2.9,NA
232,2016-08-19,Arnulf,00:00,23:59,1210,64,1274,14.4,24.7,1.2,75,5.4,NA
233,2016-08-20,Arnulf,00:00,23:59,862,39,901,16.1,27.4,9,84,4.8,NA
234,2016-08-21,Arnulf,00:00,23:59,628,46,674,13.7,21.3,0.1,79,3.3,NA
235,2016-08-22,Arnulf,00:00,23:59,1554,90,1644,13.3,22.2,0,64,8.8,NA
236,2016-08-23,Arnulf,00:00,23:59,1857,83,1940,11.9,26,0,4,13.3,NA
237,2016-08-24,Arnulf,00:00,23:59,1850,89,1939,14.1,27.1,0,0,13.4,NA
238,2016-08-25,Arnulf,00:00,23:59,1942,100,2042,14.3,28.2,0,1,13.3,NA
239,2016-08-26,Arnulf,00:00,23:59,1652,93,1745,13.6,31.4,0,0,13.1,NA
240,2016-08-27,Arnulf,00:00,23:59,1096,52,1148,16.4,31.1,0,1,13,NA
241,2016-08-28,Arnulf,00:00,23:59,991,67,1058,17,31.8,0,16,10.5,NA
242,2016-08-29,Arnulf,00:00,23:59,962,62,1024,17.4,23.1,20.4,89,2.1,NA
243,2016-08-30,Arnulf,00:00,23:59,1703,94,1797,14.9,24.4,0,43,6.7,NA
244,2016-08-31,Arnulf,00:00,23:59,1955,102,2057,13.5,25.6,1.1,3,12.4,NA
245,2016-09-01,Arnulf,00:00,23:59,1363,75,1438,16.1,25.9,5.7,64,3.9,NA
246,2016-09-02,Arnulf,00:00,23:59,1695,100,1795,11,26,0,60,10.6,NA
247,2016-09-03,Arnulf,00:00,23:59,1195,45,1240,11.1,25.1,0,88,7.6,NA
248,2016-09-04,Arnulf,00:00,23:59,859,53,912,9.7,25.5,2.5,73,4.9,NA
249,2016-09-05,Arnulf,00:00,23:59,1047,84,1131,12.9,19.3,0.1,83,4.8,NA
250,2016-09-06,Arnulf,00:00,23:59,1402,93,1495,14,21.9,0,85,4.6,NA
251,2016-09-07,Arnulf,00:00,23:59,1797,83,1880,13.3,24.8,0,25,8.8,NA
252,2016-09-08,Arnulf,00:00,23:59,1829,106,1935,13.7,28.5,0,6,11.9,NA
253,2016-09-09,Arnulf,00:00,23:59,1768,128,1896,16.2,28.3,0,16,9.2,NA
254,2016-09-10,Arnulf,00:00,23:59,1159,57,1216,14.6,28.1,0,10,11.3,NA
255,2016-09-11,Arnulf,00:00,23:59,1061,62,1123,16.1,28.1,0,3,10.1,NA
256,2016-09-12,Arnulf,00:00,23:59,1921,118,2039,15,29.4,0,3,11.5,NA
257,2016-09-13,Arnulf,00:00,23:59,2004,126,2130,14.3,29,0,0,11.6,NA
258,2016-09-14,Arnulf,00:00,23:59,2154,114,2268,14.5,27.7,0,1,11.4,NA
259,2016-09-15,Arnulf,00:00,23:59,2082,106,2188,15,28.7,0,20,7.8,NA
260,2016-09-16,Arnulf,00:00,23:59,1460,87,1547,13.6,22.8,21,71,3.9,NA
261,2016-09-17,Arnulf,00:00,23:59,238,14,252,12.2,14.3,30,98,0,NA
262,2016-09-18,Arnulf,00:00,23:59,272,35,307,12.8,14.4,12.6,96,0,NA
263,2016-09-19,Arnulf,00:00,23:59,612,72,684,11.3,13.1,15.8,96,0,NA
264,2016-09-20,Arnulf,00:00,23:59,1241,93,1334,8.4,15.7,0,90,1.1,NA
265,2016-09-21,Arnulf,00:00,23:59,1535,86,1621,6.6,16.4,0,56,2.6,NA
266,2016-09-22,Arnulf,00:00,23:59,1661,99,1760,5.9,19.6,0,23,10.7,NA
267,2016-09-23,Arnulf,00:00,23:59,1602,102,1704,7.2,19.8,0,49,7.2,NA
268,2016-09-24,Arnulf,00:00,23:59,1043,51,1094,8,20.7,0,4,10.6,NA
269,2016-09-25,Arnulf,00:00,23:59,895,60,955,7.6,22,0,1,11.3,NA
270,2016-09-26,Arnulf,00:00,23:59,1768,128,1896,9.2,22.6,0,5,10.2,NA
271,2016-09-27,Arnulf,00:00,23:59,1761,103,1864,9.2,19,0,29,4.5,NA
272,2016-09-28,Arnulf,00:00,23:59,1770,114,1884,9.3,21.6,0,30,7.9,NA
273,2016-09-29,Arnulf,00:00,23:59,1842,123,1965,12.4,24.7,0,18,10.6,NA
274,2016-09-30,Arnulf,00:00,23:59,1821,124,1945,11.6,24.9,0,1,11.1,NA
275,2016-10-01,Arnulf,00:00,23:59,971,74,1045,9.7,22.9,0.6,53,7.3,NA
276,2016-10-02,Arnulf,00:00,23:59,281,42,323,9.8,14.1,3.1,90,0,NA
277,2016-10-03,Arnulf,00:00,23:59,488,38,526,8.9,14.9,0.9,90,1.9,NA
278,2016-10-04,Arnulf,00:00,23:59,990,82,1072,6.8,10.5,3.7,90,0,NA
279,2016-10-05,Arnulf,00:00,23:59,1323,85,1408,4.2,11.4,1.7,60,8.4,NA
280,2016-10-06,Arnulf,00:00,23:59,813,61,874,5.2,9,2.1,98,0,NA
281,2016-10-07,Arnulf,00:00,23:59,837,66,903,7.3,10.4,1.2,98,0,NA
282,2016-10-08,Arnulf,00:00,23:59,473,32,505,6.1,9.8,0.7,96,0,NA
283,2016-10-09,Arnulf,00:00,23:59,496,26,522,2.7,12.1,0,53,8,NA
284,2016-10-10,Arnulf,00:00,23:59,1168,87,1255,2.3,11,0.6,79,2,NA
285,2016-10-11,Arnulf,00:00,23:59,1129,78,1207,4.1,9.9,0.3,95,1,NA
286,2016-10-12,Arnulf,00:00,23:59,1160,86,1246,3.2,10.2,0,65,2.9,NA
287,2016-10-13,Arnulf,00:00,23:59,1229,85,1314,1.9,10.7,0,69,4.6,NA
288,2016-10-14,Arnulf,00:00,23:59,1159,90,1249,5.2,17.8,0,85,0.2,NA
289,2016-10-15,Arnulf,00:00,23:59,791,29,820,10.2,18.6,0,81,6,NA
290,2016-10-16,Arnulf,00:00,23:59,845,40,885,7.8,19.4,0,23,8.8,NA
291,2016-10-17,Arnulf,00:00,23:59,1345,69,1414,7.2,15.8,9.8,93,1.2,NA
292,2016-10-18,Arnulf,00:00,23:59,647,50,697,9.8,12.7,8.3,98,0.1,NA
293,2016-10-19,Arnulf,00:00,23:59,991,70,1061,7.2,10.8,1.7,96,0.2,NA
294,2016-10-20,Arnulf,00:00,23:59,1130,75,1205,6.3,12.1,1.5,68,2.9,NA
295,2016-10-21,Arnulf,00:00,23:59,777,62,839,5.7,7.4,0.5,84,0,NA
296,2016-10-22,Arnulf,00:00,23:59,621,30,651,3.3,11.6,0,54,5.8,NA
297,2016-10-23,Arnulf,00:00,23:59,582,33,615,2.4,14.6,0.5,83,3.8,NA
298,2016-10-24,Arnulf,00:00,23:59,1288,67,1355,8.9,20.2,1.7,54,3.7,NA
299,2016-10-25,Arnulf,00:00,23:59,780,47,827,8.7,15.3,5.8,91,0,NA
300,2016-10-26,Arnulf,00:00,23:59,1148,65,1213,7,13,0,94,0.2,NA
301,2016-10-27,Arnulf,00:00,23:59,1193,83,1276,3.7,12.1,0,48,2.8,NA
302,2016-10-28,Arnulf,00:00,23:59,1153,82,1235,2.3,13.1,0,36,7.9,NA
303,2016-10-29,Arnulf,00:00,23:59,443,29,472,5.2,10.4,0.5,73,0,NA
304,2016-10-30,Arnulf,00:00,23:59,468,32,500,3.2,12.3,0,56,6,NA
305,2016-10-31,Arnulf,00:00,23:59,1002,74,1076,2.8,12.3,0,15,9.3,NA
306,2016-11-01,Arnulf,00:00,23:59,473,22,495,0.5,10,0,15,8.8,NA
307,2016-11-02,Arnulf,00:00,23:59,701,64,765,4.4,10.5,4.7,86,0,NA
308,2016-11-03,Arnulf,00:00,23:59,965,65,1030,0.2,8.8,0,51,2.3,NA
309,2016-11-04,Arnulf,00:00,23:59,931,58,989,-1.5,12,0,44,8.1,NA
310,2016-11-05,Arnulf,00:00,23:59,448,13,461,6.8,14.9,9.8,93,0.9,NA
311,2016-11-06,Arnulf,00:00,23:59,107,11,118,1.6,6.9,13.3,95,0,NA
312,2016-11-07,Arnulf,00:00,23:59,759,61,820,-0.5,5,1.6,84,1.6,NA
313,2016-11-08,Arnulf,00:00,23:59,960,74,1034,0.1,5.1,1.5,85,3.6,NA
314,2016-11-09,Arnulf,00:00,23:59,864,55,919,0.5,6.6,2.8,93,2.9,NA
315,2016-11-10,Arnulf,00:00,23:59,755,62,817,4,7.7,8.9,93,0.6,NA
316,2016-11-11,Arnulf,00:00,23:59,575,52,627,1.3,6.1,4.6,96,0,NA
317,2016-11-12,Arnulf,00:00,23:59,310,15,325,-2,2.8,0,80,0.2,NA
318,2016-11-13,Arnulf,00:00,23:59,284,14,298,-2,2.6,0,81,0.2,NA
319,2016-11-14,Arnulf,00:00,23:59,879,66,945,-2.9,1.7,0,95,1.7,NA
320,2016-11-15,Arnulf,00:00,23:59,899,69,968,-1.4,6.3,4.5,98,0.1,NA
321,2016-11-16,Arnulf,00:00,23:59,554,57,611,5.6,10,8.8,98,0,NA
322,2016-11-17,Arnulf,00:00,23:59,783,59,842,6.4,11.2,0.7,70,0.8,NA
323,2016-11-18,Arnulf,00:00,23:59,890,66,956,6.8,14.8,2.2,76,2.9,NA
324,2016-11-19,Arnulf,00:00,23:59,217,17,234,3.3,8,5.6,86,0,NA
325,2016-11-20,Arnulf,00:00,23:59,394,31,425,2.4,12.6,0,31,3.7,NA
326,2016-11-21,Arnulf,00:00,23:59,1110,83,1193,3.6,18.9,0,50,3.8,NA
327,2016-11-22,Arnulf,00:00,23:59,1160,74,1234,4.9,15.7,0,79,1,NA
328,2016-11-23,Arnulf,00:00,23:59,1149,72,1221,2.3,13.1,0,49,4.2,NA
329,2016-11-24,Arnulf,00:00,23:59,1102,81,1183,4.5,6.2,0,99,0,NA
330,2016-11-25,Arnulf,00:00,23:59,922,71,993,4.3,7.2,0,100,0,NA
331,2016-11-26,Arnulf,00:00,23:59,431,32,463,5.1,6.5,0.3,99,0,NA
332,2016-11-27,Arnulf,00:00,23:59,359,28,387,2.2,6.6,0.1,99,0,NA
333,2016-11-28,Arnulf,00:00,23:59,931,62,993,-3.5,2.4,0,20,6.5,NA
334,2016-11-29,Arnulf,00:00,23:59,945,73,1018,-4.7,1.3,0,0,8.2,NA
335,2016-11-30,Arnulf,00:00,23:59,934,69,1003,-5.9,5.6,0,39,7.8,NA
336,2016-12-01,Arnulf,00:00,23:59,888,73,961,0.2,6.4,0.1,78,0.3,NA
337,2016-12-02,Arnulf,00:00,23:59,804,55,859,0.1,5.6,0.1,94,0.5,NA
338,2016-12-03,Arnulf,00:00,23:59,387,22,409,-3.6,2.2,0,50,4.8,NA
339,2016-12-04,Arnulf,00:00,23:59,221,23,244,-2.7,-0.7,0,98,0,NA
340,2016-12-05,Arnulf,00:00,23:59,923,62,985,-3.1,2.4,0,66,6.1,NA
341,2016-12-06,Arnulf,00:00,23:59,893,56,949,-4.6,6.1,0,30,7.8,NA
342,2016-12-07,Arnulf,00:00,23:59,899,68,967,-5,2.1,0,79,6.8,NA
343,2016-12-08,Arnulf,00:00,23:59,936,78,1014,-3.5,12,0,36,7.6,NA
344,2016-12-09,Arnulf,00:00,23:59,899,54,953,-1.7,10.8,0,20,5.1,NA
345,2016-12-10,Arnulf,00:00,23:59,494,25,519,-0.7,11.4,0,1,7.7,NA
346,2016-12-11,Arnulf,00:00,23:59,239,16,255,-1.2,7.9,0.4,61,0.9,NA
347,2016-12-12,Arnulf,00:00,23:59,853,69,922,-1.1,5.8,0.4,78,0.5,NA
348,2016-12-13,Arnulf,00:00,23:59,997,63,1060,-2.6,8.2,0.3,40,6.8,NA
349,2016-12-14,Arnulf,00:00,23:59,931,66,997,1.3,9.7,0,84,3.9,NA
350,2016-12-15,Arnulf,00:00,23:59,962,69,1031,0.1,5.7,0,83,0,NA
351,2016-12-16,Arnulf,00:00,23:59,865,61,926,-1,1.3,0,100,0,NA
352,2016-12-17,Arnulf,00:00,23:59,420,28,448,-2.8,2.3,0,85,4.6,NA
353,2016-12-18,Arnulf,00:00,23:59,211,22,233,-0.5,3.5,1.1,98,0,NA
354,2016-12-19,Arnulf,00:00,23:59,830,60,890,-0.9,1.4,0,100,0,NA
355,2016-12-20,Arnulf,00:00,23:59,925,70,995,-2.2,-0.6,0,99,0,NA